Time,TemperatureF,DewpointF,PressureIn,WindDirection,WindDirectionDegrees,WindSpeedMPH,WindSpeedGustMPH,Humidity,HourlyPrecipIn,Conditions,Clouds,dailyrainin,SoftwareType,DateUTC
2013-02-16 00:12:00,-999.0,-99.9,-100.00,NNW,348,12.0,13.0,-999,-99.99,,,-99.99,,2013-02-16 05:12:00,
2013-02-16 00:22:00,-999.0,-99.9,-100.00,NNW,348,12.0,13.0,-999,-99.99,,,-99.99,,2013-02-16 05:22:00,
2013-02-16 00:32:00,27.0,-99.9,30.10,NNW,339,12.0,13.0,-999,-99.99,,,-99.99,,2013-02-16 05:32:00,
2013-02-16 00:42:00,27.0,-99.9,30.10,NNW,337,11.0,13.0,-999,-99.99,,,-99.99,,2013-02-16 05:42:00,
2013-02-16 01:02:00,27.0,-99.9,30.10,North,350,10.0,12.0,-999,-99.99,,,-99.99,,2013-02-16 06:02:00,
2013-02-16 01:11:00,27.0,-99.9,30.10,North,-999,-999.0,-999.0,-999,-99.99,,,-99.99,,2013-02-16 06:11:00,
2013-02-16 01:22:00,27.0,-99.9,30.10,NNW,337,11.0,14.0,-999,-99.99,,,-99.99,,2013-02-16 06:22:00,
2013-02-16 01:42:00,27.0,-99.9,30.09,NNW,335,11.0,14.0,-999,-99.99,,,-99.99,,2013-02-16 06:42:00,
2013-02-16 02:11:00,26.0,-99.9,-100.00,North,350,11.0,13.0,-999,-99.99,,,-99.99,,2013-02-16 07:11:00,
2013-02-16 02:22:00,-999.0,-99.9,-100.00,NNW,329,8.0,13.0,-999,-99.99,,,-99.99,,2013-02-16 07:22:00,
2013-02-16 02:42:00,26.0,-99.9,30.09,WNW,288,6.0,9.0,-999,-99.99,,,-99.99,,2013-02-16 07:42:00,
2013-02-16 02:53:00,-999.0,-99.9,-100.00,NNW,331,6.0,11.0,-999,-99.99,,,-99.99,,2013-02-16 07:53:00,
2013-02-16 03:02:00,26.0,-99.9,30.09,NW,323,9.0,13.0,-999,-99.99,,,-99.99,,2013-02-16 08:02:00,
2013-02-16 03:11:00,25.0,-99.9,30.09,NNW,329,5.0,9.0,-999,-99.99,,,-99.99,,2013-02-16 08:11:00,
2013-02-16 03:22:00,26.0,-99.9,30.08,NNW,329,5.0,7.0,-999,-99.99,,,-99.99,,2013-02-16 08:22:00,
2013-02-16 03:32:00,25.0,-99.9,30.08,West,275,4.0,5.0,-999,-99.99,,,-99.99,,2013-02-16 08:32:00,
2013-02-16 03:42:00,25.0,-99.9,30.08,WNW,292,6.0,7.0,-999,-99.99,,,-99.99,,2013-02-16 08:42:00,
2013-02-16 04:11:00,25.0,-99.9,-100.00,SSW,192,1.0,1.0,-999,-99.99,,,-99.99,,2013-02-16 09:11:00,
2013-02-16 04:32:00,25.0,-99.9,30.06,South,175,1.0,1.0,-999,-99.99,,,-99.99,,2013-02-16 09:32:00,
2013-02-16 04:43:00,-999.0,-99.9,-100.00,SE,141,1.0,2.0,-999,-99.99,,,-99.99,,2013-02-16 09:43:00,
2013-02-16 04:52:00,25.0,-99.9,30.06,SSE,159,1.0,2.0,-999,-99.99,,,-99.99,,2013-02-16 09:52:00,
2013-02-16 05:01:00,25.0,-99.9,30.06,South,188,1.0,2.0,-999,-99.99,,,-99.99,,2013-02-16 10:01:00,
2013-02-16 05:11:00,25.0,-99.9,-100.00,SW,222,1.0,2.0,-999,-99.99,,,-99.99,,2013-02-16 10:11:00,
2013-02-16 05:32:00,26.0,-99.9,-100.00,WNW,292,11.0,15.0,-999,-99.99,,,-99.99,,2013-02-16 10:32:00,
2013-02-16 05:42:00,25.0,-99.9,30.05,West,280,14.0,17.0,-999,-99.99,,,-99.99,,2013-02-16 10:42:00,
2013-02-16 05:52:00,-999.0,-99.9,-100.00,WNW,293,13.0,16.0,-999,-99.99,,,-99.99,,2013-02-16 10:52:00,
2013-02-16 06:42:00,25.0,-99.9,30.05,WNW,296,16.0,19.0,-999,-99.99,,,-99.99,,2013-02-16 11:42:00,
2013-02-16 06:52:00,-999.0,-99.9,-100.00,WNW,287,16.0,21.0,-999,-99.99,,,-99.99,,2013-02-16 11:52:00,
2013-02-16 07:12:00,25.0,-99.9,-100.00,WNW,288,17.0,20.0,-999,-99.99,,,-99.99,,2013-02-16 12:12:00,
2013-02-16 07:42:00,-999.0,-99.9,-100.00,WNW,293,14.0,17.0,-999,-99.99,,,-99.99,,2013-02-16 12:42:00,
2013-02-16 08:12:00,24.0,-99.9,30.06,NNW,336,10.0,14.0,-999,-99.99,,,-99.99,,2013-02-16 13:12:00,
2013-02-16 08:32:00,24.0,-99.9,30.06,NNW,328,7.0,10.0,-999,-99.99,,,-99.99,,2013-02-16 13:32:00,
2013-02-16 08:42:00,24.0,-99.9,-100.00,NNW,331,7.0,9.0,-999,-99.99,,,-99.99,,2013-02-16 13:42:00,
2013-02-16 09:32:00,25.0,-99.9,30.06,NW,321,8.0,9.0,-999,-99.99,,,-99.99,,2013-02-16 14:32:00,
2013-02-16 09:42:00,25.0,-99.9,-100.00,NW,305,6.0,10.0,-999,-99.99,,,-99.99,,2013-02-16 14:42:00,
2013-02-16 09:52:00,25.0,-99.9,30.06,NW,317,7.0,9.0,-999,-99.99,,,-99.99,,2013-02-16 14:52:00,
2013-02-16 10:02:00,25.0,-99.9,30.06,NW,319,5.0,7.0,-999,-99.99,,,-99.99,,2013-02-16 15:02:00,
2013-02-16 10:11:00,25.0,-99.9,-100.00,NNW,331,2.0,5.0,-999,-99.99,,,-99.99,,2013-02-16 15:11:00,
2013-02-16 10:22:00,-999.0,-99.9,-100.00,North,358,5.0,6.0,-999,-99.99,,,-99.99,,2013-02-16 15:22:00,
2013-02-16 10:42:00,26.0,-99.9,-100.00,NNW,346,6.0,9.0,-999,-99.99,,,-99.99,,2013-02-16 15:42:00,
2013-02-16 11:02:00,25.0,-99.9,30.06,North,351,6.0,7.0,-999,-99.99,,,-99.99,,2013-02-16 16:02:00,
2013-02-16 11:42:00,25.0,-99.9,-100.00,NNW,338,6.0,8.0,-999,-99.99,,,-99.99,,2013-02-16 16:42:00,
2013-02-16 12:11:00,25.0,-99.9,30.05,NE,49,4.0,6.0,-999,-99.99,,,-99.99,,2013-02-16 17:11:00,
2013-02-16 12:42:00,-999.0,-99.9,-100.00,North,2,3.0,5.0,-999,-99.99,,,-99.99,,2013-02-16 17:42:00,
2013-02-16 13:11:00,26.0,-99.9,-100.00,NW,304,3.0,6.0,-999,-99.99,,,-99.99,,2013-02-16 18:11:00,
2013-02-16 13:33:00,26.0,-99.9,30.02,North,350,5.0,9.0,-999,-99.99,,,-99.99,,2013-02-16 18:33:00,
2013-02-16 13:42:00,26.0,-99.9,-100.00,NNW,343,3.0,7.0,-999,-99.99,,,-99.99,,2013-02-16 18:42:00,
2013-02-16 14:22:00,25.0,-99.9,30.00,NW,318,4.0,4.0,-999,-99.99,,,-99.99,,2013-02-16 19:22:00,
2013-02-16 14:42:00,26.0,-99.9,-100.00,NW,321,4.0,6.0,-999,-99.99,,,-99.99,,2013-02-16 19:42:00,
2013-02-16 15:11:00,25.0,-99.9,29.99,North,7,3.0,5.0,-999,-99.99,,,-99.99,,2013-02-16 20:11:00,
2013-02-16 15:22:00,-999.0,-99.9,-100.00,North,3,3.0,5.0,-999,-99.99,,,-99.99,,2013-02-16 20:22:00,
2013-02-16 15:42:00,-999.0,-99.9,-100.00,North,352,4.0,4.0,-999,-99.99,,,-99.99,,2013-02-16 20:42:00,
2013-02-16 16:02:00,25.0,-99.9,29.99,North,359,4.0,5.0,-999,-99.99,,,-99.99,,2013-02-16 21:02:00,
2013-02-16 16:11:00,25.0,-99.9,29.99,NNE,17,3.0,6.0,-999,-99.99,,,-99.99,,2013-02-16 21:11:00,
2013-02-16 16:42:00,25.0,-99.9,29.99,North,10,4.0,5.0,-999,-99.99,,,-99.99,,2013-02-16 21:42:00,
2013-02-16 17:11:00,-999.0,-99.9,-100.00,NNW,338,7.0,8.0,-999,-99.99,,,-99.99,,2013-02-16 22:11:00,
2013-02-16 17:22:00,25.0,-99.9,29.99,NW,321,7.0,9.0,-999,-99.99,,,-99.99,,2013-02-16 22:22:00,
2013-02-16 17:42:00,23.0,-99.9,-100.00,West,281,8.0,10.0,-999,-99.99,,,-99.99,,2013-02-16 22:42:00,
2013-02-16 17:52:00,23.0,-99.9,30.00,WNW,282,8.0,9.0,-999,-99.99,,,-99.99,,2013-02-16 22:52:00,
2013-02-16 18:02:00,23.0,-99.9,30.00,SSW,206,2.0,7.0,-999,-99.99,,,-99.99,,2013-02-16 23:02:00,
2013-02-16 18:11:00,23.0,-99.9,-100.00,WNW,288,5.0,6.0,-999,-99.99,,,-99.99,,2013-02-16 23:11:00,
2013-02-16 18:22:00,-999.0,-99.9,-100.00,WNW,283,6.0,7.0,-999,-99.99,,,-99.99,,2013-02-16 23:22:00,
2013-02-16 18:42:00,22.0,-99.9,-100.00,WNW,299,13.0,18.0,-999,-99.99,,,-99.99,,2013-02-16 23:42:00,
2013-02-16 19:32:00,23.0,-99.9,30.01,NNW,340,5.0,6.0,-999,-99.99,,,-99.99,,2013-02-17 00:32:00,
2013-02-16 19:42:00,22.0,-99.9,-100.00,NNW,327,4.0,4.0,-999,-99.99,,,-99.99,,2013-02-17 00:42:00,
2013-02-16 19:52:00,-999.0,-99.9,-100.00,NNW,335,2.0,4.0,-999,-99.99,,,-99.99,,2013-02-17 00:52:00,
2013-02-16 20:11:00,22.0,-99.9,-100.00,WNW,291,4.0,5.0,-999,-99.99,,,-99.99,,2013-02-17 01:11:00,
2013-02-16 20:22:00,-999.0,-99.9,-100.00,West,269,4.0,6.0,-999,-99.99,,,-99.99,,2013-02-17 01:22:00,
2013-02-16 20:32:00,23.0,-99.9,30.01,WNW,294,9.0,11.0,-999,-99.99,,,-99.99,,2013-02-17 01:32:00,
2013-02-16 20:52:00,23.0,-99.9,30.01,NW,325,12.0,14.0,-999,-99.99,,,-99.99,,2013-02-17 01:52:00,
2013-02-16 21:01:00,23.0,-99.9,30.01,NW,326,11.0,14.0,-999,-99.99,,,-99.99,,2013-02-17 02:01:00,
2013-02-16 21:11:00,23.0,-99.9,30.01,NW,316,10.0,13.0,-999,-99.99,,,-99.99,,2013-02-17 02:11:00,
2013-02-16 21:42:00,22.0,-99.9,-100.00,WNW,300,10.0,12.0,-999,-99.99,,,-99.99,,2013-02-17 02:42:00,
2013-02-16 21:52:00,-999.0,-99.9,-100.00,WNW,300,11.0,13.0,-999,-99.99,,,-99.99,,2013-02-17 02:52:00,
2013-02-16 22:02:00,22.0,-99.9,30.01,NW,312,12.0,14.0,-999,-99.99,,,-99.99,,2013-02-17 03:02:00,
2013-02-16 22:21:00,22.0,-99.9,30.00,NW,318,14.0,19.0,-999,-99.99,,,-99.99,,2013-02-17 03:21:00,
2013-02-16 22:32:00,23.0,-99.9,30.00,NNW,336,20.0,23.0,-999,-99.99,,,-99.99,,2013-02-17 03:32:00,
2013-02-16 22:42:00,23.0,-99.9,30.00,NW,326,21.0,24.0,-999,-99.99,,,-99.99,,2013-02-17 03:42:00,
2013-02-16 22:52:00,22.0,-99.9,30.00,NW,318,23.0,26.0,-999,-99.99,,,-99.99,,2013-02-17 03:52:00,
2013-02-16 23:01:00,22.0,-99.9,30.00,NW,309,23.0,28.0,-999,-99.99,,,-99.99,,2013-02-17 04:01:00,
2013-02-16 23:11:00,22.0,-99.9,-100.00,NW,310,25.0,28.0,-999,-99.99,,,-99.99,,2013-02-17 04:11:00,
2013-02-16 23:22:00,-999.0,-99.9,-100.00,NW,313,24.0,26.0,-999,-99.99,,,-99.99,,2013-02-17 04:22:00,